Simultaneous Nadir Overpasses (SNOs) Predictions

Prediction of SNOs between GOES-17 and METOP-C Satellite Orbit:

Table of predicted SNOs for the next 14.0 days since TLE Epoch: 7/1/2023
Index Date Time (GOES-17) GOES-17 Lat,Lon METOP-C Lat,Lon Distance(km) Time Diff (sec)
1 07/02/2023 04:25:01 0.00,-104.71 0.11,-104.12 66.62 80
2 07/03/2023 16:43:53 -0.00,-104.74 0.88,-108.68 449.74 80
3 07/04/2023 16:25:53 -0.00,-104.73 -0.24,-103.69 119.06 80
4 07/06/2023 04:44:53 0.00,-104.69 -0.78,-108.29 409.27 80
5 07/07/2023 04:21:33 -0.00,-104.69 0.29,-103.29 159.46 80
6 07/08/2023 16:40:24 0.00,-104.72 0.72,-107.85 356.74 80
7 07/09/2023 16:22:25 0.00,-104.73 -0.41,-102.86 212.54 80
8 07/11/2023 04:41:24 -0.00,-104.69 -0.64,-107.45 314.69 80
9 07/12/2023 04:18:05 -0.00,-104.69 0.49,-102.46 254.24 80
10 07/13/2023 16:36:56 -0.00,-104.72 0.52,-107.02 262.41 80
11 07/14/2023 16:18:56 -0.00,-104.72 -0.61,-102.03 306.79 80
